When you browse on this site, cookies collect data to enhance your experience and personalize the content and advertising you see.
Visit our Privacy Policy to learn more. By continuing to use the site, you agree to this use of cookies and data.
  • In Hungary
  • List of Countries
  • For 7 days
  • Water Temperature
  • Satellite Maps
  • Weather Map
  • News
  • Weather Widgets
  • user-avatar
    Login

    Hourly Weather Port-au-Princ

    Today, 16 January, Wednesday

    Time Temperature Precipitation Wind Pressure Humidity
    00:00 +22°C° 0 mm 1 mps 738 mmHg 85%
    01:00 +22°C° 0 mm 1 mps 738 mmHg 85%
    02:00 +22°C° 0 mm 1 mps 737 mmHg 85%
    03:00 +22°C° 0 mm 1 mps 737 mmHg 84%
    04:00 +22°C° 0 mm 1 mps 737 mmHg 84%
    05:00 +22°C° 0 mm 1 mps 737 mmHg 83%
    06:00 +22°C° 0 mm 1 mps 738 mmHg 82%
    07:00 +22°C° 0 mm 1 mps 738 mmHg 80%
    08:00 +24°C° 0 mm 1 mps 738 mmHg 70%
    09:00 +26°C° 0 mm 1 mps 739 mmHg 61%
    10:00 +28°C° 0 mm 1 mps 739 mmHg 51%
    11:00 +29°C° 0 mm 1 mps 739 mmHg 48%
    12:00 +30°C° 0 mm 1 mps 739 mmHg 45%
    13:00 +31°C° 0 mm 2 mps 738 mmHg 42%
    14:00 +30°C° 0 mm 2 mps 738 mmHg 44%
    15:00 +30°C° 0 mm 2 mps 738 mmHg 47%
    16:00 +29°C° 0 mm 3 mps 737 mmHg 49%
    17:00 +27°C° 0 mm 2 mps 737 mmHg 57%
    18:00 +26°C° 0 mm 1 mps 738 mmHg 64%
    19:00 +24°C° 0 mm 1 mps 738 mmHg 72%
    20:00 +24°C° 0 mm 1 mps 738 mmHg 74%
    21:00 +23°C° 0 mm 1 mps 738 mmHg 76%
    22:00 +21°C° 0 mm 0 mps 738 mmHg 78%
    23:00 +22°C° 0 mm 1 mps 738 mmHg 78%

    Tomorrow, 17 January, Thursday

    Time Temperature Precipitation Wind Pressure Humidity
    00:00 +22°C° 0 mm 1 mps 738 mmHg 78%
    01:00 +21°C° 0 mm 2 mps 738 mmHg 78%
    02:00 +21°C° 0 mm 2 mps 738 mmHg 79%
    03:00 +20°C° 0 mm 2 mps 738 mmHg 79%
    04:00 +20°C° 0 mm 2 mps 737 mmHg 79%
    05:00 +20°C° 0 mm 2 mps 738 mmHg 78%
    06:00 +21°C° 0 mm 2 mps 738 mmHg 77%
    07:00 +21°C° 0 mm 2 mps 738 mmHg 76%
    08:00 +24°C° 0 mm 2 mps 739 mmHg 66%
    09:00 +26°C° 0 mm 1 mps 739 mmHg 56%
    10:00 +29°C° 0 mm 1 mps 740 mmHg 46%
    11:00 +30°C° 0 mm 1 mps 739 mmHg 44%
    12:00 +30°C° 0 mm 1 mps 739 mmHg 42%
    13:00 +31°C° 0 mm 2 mps 738 mmHg 40%
    14:00 +31°C° 0 mm 2 mps 738 mmHg 43%
    15:00 +30°C° 0 mm 2 mps 737 mmHg 45%
    16:00 +29°C° 0 mm 3 mps 737 mmHg 47%
    17:00 +28°C° 0 mm 2 mps 737 mmHg 54%
    18:00 +26°C° 0 mm 2 mps 737 mmHg 61%
    19:00 +24°C° 0 mm 1 mps 738 mmHg 68%
    20:00 +24°C° 0 mm 1 mps 738 mmHg 71%
    21:00 +23°C° 0 mm 1 mps 738 mmHg 74%
    22:00 +23°C° 0 mm 1 mps 738 mmHg 76%
    23:00 +23°C° 0 mm 1 mps 738 mmHg 77%

    Day after tomorrow, 18 January, Friday

    Time Temperature Precipitation Wind Pressure Humidity
    00:00 +22°C° 0 mm 1 mps 737 mmHg 77%
    01:00 +21°C° 0 mm 2 mps 737 mmHg 78%
    02:00 +21°C° 0 mm 2 mps 737 mmHg 79%
    03:00 +21°C° 0 mm 2 mps 737 mmHg 79%
    04:00 +20°C° 0 mm 2 mps 736 mmHg 80%
    05:00 +21°C° 0 mm 2 mps 737 mmHg 78%
    06:00 +21°C° 0 mm 2 mps 737 mmHg 77%
    07:00 +21°C° 0 mm 2 mps 737 mmHg 76%
    08:00 +24°C° 0 mm 2 mps 738 mmHg 66%
    09:00 +26°C° 0 mm 1 mps 738 mmHg 57%
    10:00 +29°C° 0 mm 1 mps 739 mmHg 47%
    11:00 +30°C° 0 mm 1 mps 738 mmHg 45%
    12:00 +31°C° 0 mm 1 mps 738 mmHg 43%
    13:00 +32°C° 0 mm 1 mps 737 mmHg 40%
    14:00 +31°C° 0 mm 2 mps 737 mmHg 43%
    15:00 +30°C° 0 mm 2 mps 736 mmHg 46%
    16:00 +30°C° 0 mm 2 mps 736 mmHg 48%
    17:00 +28°C° 0 mm 2 mps 736 mmHg 54%
    18:00 +27°C° 0 mm 1 mps 737 mmHg 60%
    19:00 +25°C° 0 mm 1 mps 737 mmHg 67%
    20:00 +25°C° 0 mm 1 mps 737 mmHg 69%
    21:00 +24°C° 0 mm 1 mps 737 mmHg 72%
    22:00 +22°C° 0 mm 0 mps 737 mmHg 75%
    23:00 +23°C° 0 mm 1 mps 737 mmHg 76%

    19 January, Saturday

    Time Temperature Precipitation Wind Pressure Humidity
    00:00 +23°C° 0 mm 1 mps 737 mmHg 76%
    01:00 +23°C° 0 mm 2 mps 736 mmHg 77%
    02:00 +21°C° 0 mm 2 mps 736 mmHg 78%
    03:00 +21°C° 0 mm 2 mps 736 mmHg 79%
    04:00 +21°C° 0 mm 2 mps 736 mmHg 80%
    05:00 +21°C° 0 mm 2 mps 736 mmHg 79%
    06:00 +21°C° 0 mm 2 mps 737 mmHg 78%
    07:00 +21°C° 0 mm 2 mps 737 mmHg 77%
    08:00 +25°C° 0 mm 2 mps 738 mmHg 67%
    09:00 +27°C° 0 mm 2 mps 738 mmHg 57%
    10:00 +29°C° 0 mm 2 mps 739 mmHg 48%
    11:00 +30°C° 0 mm 2 mps 738 mmHg 45%
    12:00 +31°C° 0 mm 2 mps 737 mmHg 43%
    13:00 +32°C° 0 mm 1 mps 737 mmHg 40%
    14:00 +32°C° 0 mm 2 mps 736 mmHg 44%
    15:00 +31°C° 0 mm 2 mps 736 mmHg 47%
    16:00 +30°C° 0 mm 2 mps 736 mmHg 50%
    17:00 +28°C° 0 mm 2 mps 736 mmHg 55%
    18:00 +27°C° 0 mm 1 mps 736 mmHg 61%
    19:00 +26°C° 0 mm 1 mps 737 mmHg 67%
    20:00 +25°C° 0 mm 1 mps 737 mmHg 70%
    21:00 +24°C° 0 mm 1 mps 737 mmHg 72%
    22:00 +24°C° 0 mm 1 mps 737 mmHg 75%
    23:00 +23°C° 0 mm 1 mps 737 mmHg 75%

    20 January, Sunday

    Time Temperature Precipitation Wind Pressure Humidity
    00:00 +23°C° 0 mm 2 mps 736 mmHg 74%
    01:00 +23°C° 0 mm 2 mps 736 mmHg 74%
    02:00 +21°C° 0 mm 2 mps 736 mmHg 75%
    03:00 +21°C° 0 mm 2 mps 736 mmHg 76%
    04:00 +21°C° 0 mm 2 mps 735 mmHg 77%
    05:00 +21°C° 0 mm 2 mps 736 mmHg 77%
    06:00 +21°C° 0 mm 2 mps 736 mmHg 77%
    07:00 +23°C° 0 mm 2 mps 737 mmHg 77%
    08:00 +25°C° 0 mm 2 mps 737 mmHg 68%
    09:00 +27°C° 0 mm 1 mps 738 mmHg 59%
    10:00 +29°C° 0 mm 1 mps 739 mmHg 50%
    11:00 +30°C° 0 mm 2 mps 738 mmHg 49%
    12:00 +31°C° 0 mm 2 mps 738 mmHg 49%
    13:00 +31°C° 0 mm 2 mps 737 mmHg 48%
    14:00 +31°C° 0 mm 2 mps 737 mmHg 50%
    15:00 +30°C° 0 mm 2 mps 736 mmHg 52%
    16:00 +30°C° 0 mm 2 mps 736 mmHg 53%
    17:00 +28°C° 0 mm 1 mps 736 mmHg 59%
    18:00 +27°C° 0 mm 1 mps 737 mmHg 65%
    19:00 +25°C° 0 mm 1 mps 737 mmHg 71%
    20:00 +25°C° 0 mm 1 mps 737 mmHg 72%
    21:00 +24°C° 0 mm 1 mps 737 mmHg 74%
    22:00 +24°C° 0 mm 1 mps 738 mmHg 76%
    23:00 +23°C° 0 mm 1 mps 737 mmHg 77%

    21 January, Monday

    Time Temperature Precipitation Wind Pressure Humidity
    00:00 +23°C° 0 mm 1 mps 737 mmHg 77%
    01:00 +23°C° 0 mm 1 mps 737 mmHg 78%
    02:00 +22°C° 0 mm 1 mps 737 mmHg 77%
    03:00 +22°C° 0 mm 1 mps 737 mmHg 77%
    04:00 +22°C° 0 mm 1 mps 737 mmHg 76%
    05:00 +22°C° 0 mm 1 mps 737 mmHg 74%
    06:00 +22°C° 0 mm 1 mps 738 mmHg 72%
    07:00 +23°C° 0 mm 2 mps 738 mmHg 70%
    08:00 +25°C° 0 mm 2 mps 739 mmHg 62%
    09:00 +27°C° 0 mm 1 mps 739 mmHg 55%
    10:00 +29°C° 0 mm 1 mps 740 mmHg 47%
    11:00 +30°C° 0 mm 2 mps 739 mmHg 45%
    12:00 +31°C° 0 mm 2 mps 738 mmHg 43%
    13:00 +32°C° 0 mm 2 mps 738 mmHg 41%
    14:00 +31°C° 0 mm 2 mps 737 mmHg 44%
    15:00 +31°C° 0 mm 3 mps 737 mmHg 47%
    16:00 +30°C° 0 mm 3 mps 737 mmHg 50%
    17:00 +28°C° 0.1 mm 2 mps 737 mmHg 58%
    18:00 +27°C° 0.1 mm 2 mps 737 mmHg 67%
    19:00 +25°C° 0.1 mm 1 mps 737 mmHg 75%
    20:00 +25°C° 0 mm 1 mps 738 mmHg 77%
    21:00 +24°C° 0 mm 1 mps 738 mmHg 79%
    22:00 +23°C° 0 mm 1 mps 738 mmHg 81%
    23:00 +23°C° 0 mm 1 mps 738 mmHg 82%
    Show more